Location: Unspecified
(0.0000°N, 0.0000°E)
Time: 08:13:31

Vanguard 1 Rocket - Pass Details

Date: 16 December 2017
Orbit: 655 x 4222 km, 34.3° (Epoch: 19 March)

Event Time Altitude Azimuth Distance (km) Brightness Sun altitude
Rises 21:39:32 0° 320° (NW) 6,713 11.9 -49.5°
Reaches altitude 10° 21:43:53 10° 327° (NNW) 6,110 11.5 -50.3°
Enters shadow 21:49:21 23° 338° (NNW) 5,503 11.1 -51.4°
Maximum altitude 22:04:34 46° 36° (NE) 4,956 - -54.3°
Drops below altitude 10° 22:28:20 10° 102° (ESE) 7,031 - -58.4°
Exits shadow 22:29:13 - 103° (ESE) 7,146 11.7 -58.6°
Sets 22:33:40 0° 108° (ESE) 7,753 12.0 -59.3°
